Detroit, MI

3:31 AM EDT on September 24, 2017 (GMT -0400)
Detroit City

Weather History for KDET - October, 2013

Change the Weather History Date:

Wednesday, October 9, 2013

  Actual Average Record
Temperature  
Mean Temperature 58 °F -  
Max Temperature 69 °F 61 °F 98 °F (2003)
Min Temperature 46 °F 47 °F 31 °F (1989)
Degree Days  
Heating Degree Days 8    
Growing Degree Days 8 (Base 50)    
Moisture  
Dew Point 46 °F    
Average Humidity 68    
Maximum Humidity 90    
Minimum Humidity 42    
Precipitation  
Precipitation 0.05 in - - ()
Sea Level Pressure  
Sea Level Pressure 30.28 in    
Wind  
Wind Speed 2 mph (ESE)    
Max Wind Speed 10 mph    
Max Gust Speed -    
Visibility 10 miles    
Events      
Averages and records for this station are not official NWS values.
T = Trace of Precipitation, MM = Missing Value Source: NWS Daily Summary

Daily Weather History Graph

Daily Weather History Graph

Search for Another Location

Airport or City:

Trip Planner

Search our weather history database for the weather conditions in past years. The results will help you decide how hot, cold, wet, or windy it might be!

Date:

Astronomy

Oct. 09, 2013 Rise Set
Actual Time 7:38 AM EDT 6:59 PM EDT
Civil Twilight 7:10 AM EDT 7:27 PM EDT
Nautical Twilight 6:37 AM EDT 8:00 PM EDT
Astronomical Twilight 6:04 AM EDT 8:32 PM EDT
Moon 12:37 PM EDT (10/9) 10:28 PM EDT (10/9)
Length of Visible Light 12h 17m
Length of Day
11h 21m
Waxing Crescent, 25% of the Moon is Illuminated
Oct 9
Waxing Crescent
Oct 11
First Quarter
Oct 18
Full
Oct 26
Last Quarter
Nov 3
New

Hourly Weather History & Observations

Time (EDT) Temp. Dew Point Humidity Pressure Visibility Wind Dir Wind Speed Gust Speed Precip Events Conditions
12:53 AM 50.0 °F 44.1 °F 80% 30.29 in 10.0 mi Calm Calm - N/A   Clear
1:53 AM 48.9 °F 44.1 °F 83% 30.29 in 10.0 mi Calm Calm - N/A   Clear
2:53 AM 51.1 °F 44.1 °F 77% 30.28 in 10.0 mi Calm Calm - 0.01 in   Clear
3:53 AM 48.9 °F 45.0 °F 86% 30.29 in 10.0 mi Calm Calm - N/A   Clear
4:53 AM 48.0 °F 44.1 °F 86% 30.29 in 10.0 mi Calm Calm - N/A   Clear
5:53 AM 46.9 °F 43.0 °F 86% 30.30 in 10.0 mi Calm Calm - N/A   Clear
6:53 AM 46.0 °F 43.0 °F 89% 30.31 in 10.0 mi Calm Calm - 0.01 in   Clear
7:53 AM 46.9 °F 44.1 °F 90% 30.32 in 10.0 mi North 3.5 mph - N/A   Clear
8:53 AM 51.1 °F 46.0 °F 83% 30.33 in 10.0 mi Calm Calm - N/A   Clear
9:53 AM 60.1 °F 53.1 °F 78% 30.33 in 10.0 mi Calm Calm - N/A   Clear
10:53 AM 64.9 °F 50.0 °F 58% 30.33 in 10.0 mi Variable 5.8 mph - 0.01 in   Clear
11:53 AM 66.0 °F 46.9 °F 50% 30.33 in 10.0 mi SE 4.6 mph - N/A   Clear
12:53 PM 68.0 °F 48.0 °F 49% 30.31 in 10.0 mi ESE 9.2 mph - N/A   Clear
1:53 PM 68.0 °F 48.0 °F 49% 30.29 in 10.0 mi East 9.2 mph - N/A   Clear
2:53 PM 69.1 °F 46.9 °F 45% 30.27 in 10.0 mi ESE 10.4 mph - 0.01 in   Clear
3:53 PM 69.1 °F 45.0 °F 42% 30.26 in 10.0 mi SE 8.1 mph - N/A   Clear
4:53 PM 66.9 °F 43.0 °F 42% 30.26 in 10.0 mi East 9.2 mph - N/A   Clear
5:53 PM 66.0 °F 44.1 °F 45% 30.25 in 10.0 mi ESE 8.1 mph - N/A   Clear
6:53 PM 62.1 °F 44.1 °F 52% 30.25 in 10.0 mi ESE 6.9 mph - N/A   Clear
7:53 PM 60.1 °F 45.0 °F 57% 30.25 in 10.0 mi ESE 6.9 mph - 0.01 in   Clear
8:53 PM 57.0 °F 46.0 °F 67% 30.25 in 10.0 mi East 3.5 mph - N/A   Clear
9:53 PM 55.9 °F 46.0 °F 69% 30.25 in 10.0 mi Calm Calm - N/A   Clear
10:53 PM 54.0 °F 46.9 °F 77% 30.25 in 10.0 mi Calm Calm - N/A   Clear
11:53 PM 52.0 °F 46.9 °F 83% 30.24 in 10.0 mi Calm Calm - N/A   Clear